Location: Unspecified
(0.0000°N, 0.0000°E)
Time: 07:31:03
(UTC+00:00)

Vanguard 2 Rocket - Pass Details

Date: 10 October 2023
Orbit: 552 x 3312 km, 32.9° (Epoch: 06 December)

Event Time Altitude Azimuth Distance (km) Brightness Sun altitude
Rises 14:59:18 0° 307° (NW) 7,146 11.9 41.6°
Reaches altitude 10° 15:03:59 10° 309° (NW) 6,228 11.8 40.4°
Maximum altitude 15:24:35 84° 36° (NE) 3,005 10.0 35.3°
Drops below altitude 10° 15:39:27 10° 123° (ESE) 4,721 10.2 31.7°
Sets 15:42:27 0° 123° (ESE) 5,421 10.5 30.9°
